CEB209 RPVM-RPMY

Flight info

Callsign CEB209
Flight time 0h 36m
Altitude 13000
Route DUME4P DUMEX W6A SAGOL SAGO4A
Aircraft A20N/M-SDE2E3FGHIJ1RWXY/C

Departure

Time 2026-05-08 01:37
Airport Mactan Cebu International Airport (RPVM)

Arrival

Time 2026-05-08 02:13
Airport Laguindingan International Airport (RPMY)
Time Latitude Longitude Altitude Speed Heading
2026-05-08 01:04 10.31457 123.97886 36 ft 0 kts 315°
2026-05-08 01:22 10.31452 123.97891 36 ft 2 kts 315°
2026-05-08 01:22 10.31442 123.97902 36 ft 2 kts 315°
2026-05-08 01:22 10.31434 123.97910 36 ft 0 kts 315°
2026-05-08 01:22 10.31425 123.97920 36 ft 2 kts 295°
2026-05-08 01:23 10.31421 123.97935 36 ft 2 kts 275°
2026-05-08 01:23 10.31422 123.97950 36 ft 2 kts 254°
2026-05-08 01:23 10.31428 123.97964 36 ft 2 kts 233°
2026-05-08 01:23 10.31433 123.97970 36 ft 1 kts 222°
2026-05-08 01:24 10.31435 123.97972 36 ft 0 kts 225°
2026-05-08 01:28 10.31434 123.97971 36 ft 1 kts 224°
2026-05-08 01:29 10.31422 123.97959 36 ft 3 kts 224°
2026-05-08 01:29 10.31397 123.97935 36 ft 6 kts 225°
2026-05-08 01:29 10.31352 123.97904 36 ft 10 kts 191°
2026-05-08 01:29 10.31279 123.97946 36 ft 15 kts 134°
2026-05-08 01:30 10.31174 123.97955 36 ft 19 kts 220°
2026-05-08 01:30 10.31071 123.97850 36 ft 23 kts 225°
2026-05-08 01:30 10.30953 123.97730 36 ft 23 kts 225°
2026-05-08 01:30 10.30840 123.97616 36 ft 22 kts 224°
2026-05-08 01:31 10.30731 123.97505 36 ft 21 kts 224°
2026-05-08 01:31 10.30623 123.97398 36 ft 21 kts 224°
2026-05-08 01:31 10.30520 123.97295 36 ft 20 kts 224°
2026-05-08 01:31 10.30419 123.97194 36 ft 20 kts 225°
2026-05-08 01:32 10.30320 123.97096 36 ft 19 kts 223°
2026-05-08 01:32 10.30224 123.97001 36 ft 19 kts 225°
2026-05-08 01:32 10.30129 123.96905 36 ft 18 kts 225°
2026-05-08 01:32 10.30036 123.96812 36 ft 18 kts 225°
2026-05-08 01:33 10.29967 123.96744 36 ft 12 kts 224°
2026-05-08 01:33 10.29894 123.96708 36 ft 11 kts 162°
2026-05-08 01:33 10.29832 123.96759 36 ft 12 kts 135°
2026-05-08 01:33 10.29807 123.96784 36 ft 0 kts 135°
2026-05-08 01:34 10.29806 123.96786 36 ft 1 kts 135°
2026-05-08 01:34 10.29796 123.96796 36 ft 3 kts 134°
2026-05-08 01:34 10.29775 123.96817 36 ft 5 kts 135°
2026-05-08 01:34 10.29743 123.96847 36 ft 7 kts 141°
2026-05-08 01:35 10.29717 123.96892 36 ft 7 kts 79°
2026-05-08 01:35 10.29734 123.96918 36 ft 0 kts 46°
2026-05-08 01:36 10.29834 123.97016 36 ft 54 kts 45°
2026-05-08 01:36 10.30274 123.97459 36 ft 122 kts 45°
2026-05-08 01:37 10.31013 123.98208 133 ft 167 kts 43°
2026-05-08 01:37 10.31865 123.99062 664 ft 177 kts 44°
2026-05-08 01:37 10.32680 123.99914 1622 ft 166 kts 44°
2026-05-08 01:37 10.33432 124.00794 2274 ft 173 kts 56°
2026-05-08 01:38 10.33892 124.01968 2745 ft 193 kts 77°
2026-05-08 01:38 10.33901 124.03397 3189 ft 217 kts 99°
2026-05-08 01:38 10.33280 124.04890 3671 ft 242 kts 123°
2026-05-08 01:38 10.32240 124.06300 4253 ft 260 kts 127°
2026-05-08 01:39 10.31084 124.07766 4824 ft 278 kts 127°
2026-05-08 01:39 10.29866 124.09321 5601 ft 286 kts 127°
2026-05-08 01:39 10.28643 124.10906 6496 ft 290 kts 127°
2026-05-08 01:39 10.27409 124.12525 7368 ft 294 kts 127°
2026-05-08 01:40 10.26145 124.14193 8236 ft 299 kts 127°
2026-05-08 01:40 10.24896 124.15845 9070 ft 303 kts 127°
2026-05-08 01:40 10.23605 124.17553 9910 ft 307 kts 128°
2026-05-08 01:40 10.22311 124.19266 10651 ft 313 kts 128°
2026-05-08 01:41 10.20962 124.21040 11280 ft 323 kts 130°
2026-05-08 01:41 10.19290 124.22535 12022 ft 325 kts 153°
2026-05-08 01:41 10.17170 124.23249 12586 ft 322 kts 176°
2026-05-08 01:41 10.14921 124.23354 12876 ft 322 kts 181°
2026-05-08 01:42 10.12684 124.23380 12903 ft 321 kts 181°
2026-05-08 01:42 10.10472 124.23401 12909 ft 321 kts 181°
2026-05-08 01:42 10.08254 124.23431 12912 ft 321 kts 181°
2026-05-08 01:42 10.06020 124.23474 12913 ft 321 kts 181°
2026-05-08 01:43 10.03796 124.23526 12914 ft 321 kts 181°
2026-05-08 01:43 10.01570 124.23583 12914 ft 321 kts 180°
2026-05-08 01:43 9.99315 124.23644 12914 ft 321 kts 181°
2026-05-08 01:43 9.97108 124.23701 12914 ft 321 kts 180°
2026-05-08 01:44 9.94885 124.23763 12914 ft 321 kts 180°
2026-05-08 01:44 9.92639 124.23826 12914 ft 321 kts 180°
2026-05-08 01:44 9.90409 124.23889 12914 ft 321 kts 180°
2026-05-08 01:44 9.88183 124.23952 12914 ft 321 kts 180°
2026-05-08 01:45 9.85953 124.24014 12914 ft 321 kts 180°
2026-05-08 01:45 9.83736 124.24076 12914 ft 321 kts 180°
2026-05-08 01:45 9.81509 124.24139 12914 ft 321 kts 180°
2026-05-08 01:45 9.79283 124.24200 12914 ft 321 kts 180°
2026-05-08 01:46 9.77058 124.24260 12914 ft 321 kts 180°
2026-05-08 01:46 9.74811 124.24322 12914 ft 321 kts 180°
2026-05-08 01:46 9.72591 124.24383 12914 ft 321 kts 180°
2026-05-08 01:46 9.70372 124.24444 12914 ft 321 kts 180°
2026-05-08 01:47 9.68130 124.24506 12914 ft 321 kts 180°
2026-05-08 01:47 9.65902 124.24569 12914 ft 321 kts 180°
2026-05-08 01:47 9.63674 124.24637 12914 ft 321 kts 180°
2026-05-08 01:48 9.59209 124.24770 12586 ft 320 kts 181°
2026-05-08 01:48 9.57021 124.24821 12338 ft 319 kts 181°
2026-05-08 01:48 9.54814 124.24878 12088 ft 318 kts 180°
2026-05-08 01:48 9.52599 124.25014 11835 ft 318 kts 174°
2026-05-08 01:49 9.50436 124.25416 11586 ft 319 kts 167°
2026-05-08 01:49 9.48298 124.26061 11336 ft 319 kts 163°
2026-05-08 01:49 9.46206 124.26752 11087 ft 318 kts 163°
2026-05-08 01:49 9.44105 124.27447 10836 ft 317 kts 163°
2026-05-08 01:50 9.42025 124.28134 10583 ft 312 kts 163°
2026-05-08 01:50 9.39982 124.28809 10329 ft 305 kts 163°
2026-05-08 01:50 9.37995 124.29462 10082 ft 304 kts 163°
2026-05-08 01:50 9.35988 124.30121 9883 ft 303 kts 163°
2026-05-08 01:51 9.33981 124.30778 9758 ft 303 kts 163°
2026-05-08 01:51 9.31961 124.31439 9632 ft 303 kts 163°
2026-05-08 01:51 9.29958 124.32095 9506 ft 303 kts 163°
2026-05-08 01:51 9.27978 124.32745 9382 ft 302 kts 163°
2026-05-08 01:52 9.25981 124.33405 9257 ft 302 kts 163°
2026-05-08 01:52 9.23995 124.34059 9133 ft 301 kts 163°
2026-05-08 01:52 9.21986 124.34718 9007 ft 301 kts 163°
2026-05-08 01:52 9.19997 124.35370 8882 ft 301 kts 163°
2026-05-08 01:53 9.18008 124.36021 8757 ft 300 kts 163°
2026-05-08 01:53 9.16039 124.36664 8633 ft 300 kts 163°
2026-05-08 01:53 9.14047 124.37315 8507 ft 299 kts 163°
2026-05-08 01:53 9.12092 124.37952 8384 ft 299 kts 163°
2026-05-08 01:54 9.10117 124.38598 8259 ft 299 kts 163°
2026-05-08 01:54 9.08120 124.39250 8133 ft 298 kts 163°
2026-05-08 01:54 9.06173 124.39886 8009 ft 298 kts 162°
2026-05-08 01:54 9.04184 124.40523 7880 ft 298 kts 166°
2026-05-08 01:55 9.02137 124.40704 7730 ft 296 kts 189°
2026-05-08 01:55 9.00211 124.40093 7611 ft 293 kts 207°
2026-05-08 01:55 8.98387 124.39195 7486 ft 292 kts 209°
2026-05-08 01:55 8.96557 124.38271 7360 ft 292 kts 208°
2026-05-08 01:56 8.94760 124.37390 7177 ft 286 kts 207°
2026-05-08 01:56 8.92982 124.36546 7037 ft 276 kts 207°
2026-05-08 01:56 8.91288 124.35751 6896 ft 266 kts 207°
2026-05-08 01:56 8.89630 124.34975 6746 ft 256 kts 206°
2026-05-08 01:57 8.88051 124.34243 6596 ft 246 kts 206°
2026-05-08 01:57 8.86507 124.33529 6448 ft 237 kts 206°
2026-05-08 01:57 8.85036 124.32845 6271 ft 232 kts 206°
2026-05-08 01:57 8.83590 124.32171 6055 ft 227 kts 206°
2026-05-08 01:58 8.82165 124.31503 5882 ft 223 kts 206°
2026-05-08 01:58 8.80765 124.30846 5700 ft 223 kts 206°
2026-05-08 01:58 8.79358 124.30184 5551 ft 221 kts 206°
2026-05-08 01:58 8.77957 124.29535 5412 ft 224 kts 207°
2026-05-08 01:59 8.76568 124.28869 5128 ft 221 kts 207°
2026-05-08 01:59 8.75189 124.28204 4877 ft 221 kts 207°
2026-05-08 01:59 8.73802 124.27540 4786 ft 220 kts 205°
2026-05-08 01:59 8.72463 124.26903 4727 ft 208 kts 205°
2026-05-08 02:00 8.71198 124.26315 4707 ft 194 kts 204°
2026-05-08 02:00 8.69976 124.25751 4708 ft 192 kts 204°
2026-05-08 02:00 8.68860 124.25035 4712 ft 192 kts 226°
2026-05-08 02:00 8.68187 124.23878 4703 ft 192 kts 254°
2026-05-08 02:01 8.68125 124.22530 4611 ft 192 kts 282°
2026-05-08 02:01 8.68675 124.21323 4489 ft 191 kts 309°
2026-05-08 02:01 8.69699 124.20502 4352 ft 191 kts 336°
2026-05-08 02:01 8.70994 124.20241 4212 ft 191 kts
2026-05-08 02:02 8.72269 124.20584 4110 ft 190 kts 23°
2026-05-08 02:02 8.73461 124.21153 4008 ft 190 kts 26°
2026-05-08 02:02 8.74650 124.21748 3968 ft 190 kts 26°
2026-05-08 02:02 8.75832 124.22327 3952 ft 190 kts 26°
2026-05-08 02:03 8.76900 124.23073 3928 ft 190 kts 50°
2026-05-08 02:03 8.77454 124.24256 3963 ft 183 kts 79°
2026-05-08 02:03 8.77437 124.25465 3939 ft 162 kts 103°
2026-05-08 02:03 8.77002 124.26469 3920 ft 154 kts 125°
2026-05-08 02:04 8.76251 124.27222 3929 ft 154 kts 146°
2026-05-08 02:04 8.75275 124.27648 3933 ft 154 kts 168°
2026-05-08 02:04 8.74206 124.27677 3932 ft 153 kts 189°
2026-05-08 02:04 8.73206 124.27333 3944 ft 154 kts 204°
2026-05-08 02:05 8.72557 124.27023 3941 ft 154 kts 206°
2026-05-08 02:05 8.71275 124.26389 3940 ft 154 kts 206°
2026-05-08 02:05 8.70313 124.25935 3924 ft 154 kts 201°
2026-05-08 02:05 8.69259 124.25784 3759 ft 150 kts 178°
2026-05-08 02:06 8.68269 124.25871 3583 ft 142 kts 174°
2026-05-08 02:06 8.67281 124.25970 3434 ft 141 kts 175°
2026-05-08 02:06 8.66306 124.26048 3278 ft 141 kts 176°
2026-05-08 02:06 8.65340 124.26107 3146 ft 140 kts 177°
2026-05-08 02:07 8.64360 124.26156 3143 ft 140 kts 178°
2026-05-08 02:07 8.63385 124.26199 3116 ft 140 kts 178°
2026-05-08 02:07 8.62407 124.26239 3089 ft 140 kts 178°
2026-05-08 02:07 8.61455 124.26409 3034 ft 140 kts 158°
2026-05-08 02:08 8.60639 124.26935 2992 ft 140 kts 134°
2026-05-08 02:08 8.60090 124.27734 2948 ft 140 kts 112°
2026-05-08 02:08 8.59881 124.28687 2902 ft 140 kts 88°
2026-05-08 02:08 8.59915 124.29345 2865 ft 140 kts 84°
2026-05-08 02:09 8.60040 124.30656 2759 ft 139 kts 85°
2026-05-08 02:09 8.60110 124.31625 2681 ft 139 kts 87°
2026-05-08 02:09 8.60178 124.32606 2595 ft 139 kts 86°
2026-05-08 02:09 8.60255 124.33577 2496 ft 139 kts 85°
2026-05-08 02:10 8.60333 124.34551 2250 ft 138 kts 85°
2026-05-08 02:10 8.60411 124.35523 2069 ft 138 kts 86°
2026-05-08 02:10 8.60484 124.36485 1882 ft 138 kts 83°
2026-05-08 02:10 8.60569 124.37457 1691 ft 137 kts 82°
2026-05-08 02:11 8.60658 124.38415 1505 ft 137 kts 84°
2026-05-08 02:11 8.60730 124.39374 1316 ft 137 kts 84°
2026-05-08 02:11 8.60809 124.40328 1130 ft 136 kts 85°
2026-05-08 02:11 8.60882 124.41276 944 ft 136 kts 85°
2026-05-08 02:12 8.60944 124.42233 744 ft 136 kts 84°
2026-05-08 02:12 8.61045 124.43169 542 ft 135 kts 91°
2026-05-08 02:12 8.61099 124.44116 360 ft 135 kts 88°
2026-05-08 02:12 8.61174 124.45058 204 ft 132 kts 90°
2026-05-08 02:13 8.61238 124.45880 198 ft 95 kts 84°
2026-05-08 02:13 8.61271 124.46282 198 ft 23 kts 86°
2026-05-08 02:13 8.61283 124.46441 198 ft 17 kts 85°
2026-05-08 02:13 8.61259 124.46542 198 ft 12 kts 117°
2026-05-08 02:14 8.61290 124.46558 198 ft 12 kts 276°
2026-05-08 02:14 8.61284 124.46471 198 ft 12 kts 265°
2026-05-08 02:14 8.61276 124.46373 198 ft 15 kts 265°
2026-05-08 02:14 8.61266 124.46255 198 ft 17 kts 265°
2026-05-08 02:15 8.61261 124.46142 198 ft 14 kts 266°
2026-05-08 02:15 8.61250 124.46032 198 ft 11 kts 260°
2026-05-08 02:15 8.61200 124.45969 198 ft 13 kts 195°
2026-05-08 02:15 8.61100 124.45972 198 ft 15 kts 174°
2026-05-08 02:16 8.61027 124.45963 198 ft 9 kts 217°
2026-05-08 02:16 8.61001 124.45895 198 ft 12 kts 266°
2026-05-08 02:16 8.60996 124.45831 198 ft 7 kts 264°
2026-05-08 02:16 8.60983 124.45789 198 ft 3 kts 231°
2026-05-08 02:17 8.60962 124.45778 198 ft 3 kts 188°
2026-05-08 02:17 8.60936 124.45777 198 ft 4 kts 179°
2026-05-08 02:17 8.60908 124.45779 198 ft 4 kts 174°
2026-05-08 02:17 8.60906 124.45779 198 ft 0 kts 174°